Simultaneous Nadir Overpasses (SNOs) Predictions

Prediction of SNOs between AQUA and METOP-C Satellite Orbit:

Table of predicted SNOs for the next 14.0 days since TLE Epoch: 4/23/2022
Index Date (AQUA) Time (AQUA) Lat,Lon (AQUA) SZA (AQUA ) Date (METOP-C) Time (METOP-C) Lat,Lon (METOP-C) SZA (METOP-C ) Distance(km) Time Diff (sec)
1 04/23/2022 21:00:29 -73.84, 39.47 118.93 04/23/2022 20:59:46 -73.85, 39.54 118.92 2.40 43
2 04/23/2022 21:49:57 73.88,-152.99 61.10 04/23/2022 21:50:26 73.89,-153.03 61.11 1.16 29
3 04/26/2022 15:44:47 73.19, -60.26 59.48 04/26/2022 15:43:41 73.12, -63.04 59.50 89.94 66
4 04/26/2022 16:34:25 -73.84, 106.00 119.86 04/26/2022 16:34:07 -73.86, 105.98 119.83 2.12 18
5 04/26/2022 17:23:54 73.94, -86.59 60.24 04/26/2022 17:24:46 73.95, -86.48 60.24 3.42 52
6 04/29/2022 11:18:54 73.80, 4.97 59.23 04/29/2022 11:17:48 73.82, 4.97 59.26 1.67 66
7 04/29/2022 12:08:21 -73.87, 172.45 120.71 04/29/2022 12:08:28 -73.86, 172.40 120.72 2.36 7
8 04/29/2022 12:57:52 74.09, -20.39 59.51 04/29/2022 12:59:04 74.09, -19.70 59.49 20.82 72
9 05/02/2022 06:52:48 73.83, 71.44 58.41 05/02/2022 06:52:08 73.81, 71.36 58.39 3.29 40
10 05/02/2022 07:42:15 -73.90,-121.07 121.54 05/02/2022 07:42:47 -73.91,-121.08 121.53 1.16 32
11 05/05/2022 01:37:06 -73.37, -28.66 122.90 05/05/2022 01:35:58 -73.33, -30.68 122.88 64.63 68
12 05/05/2022 02:26:42 73.85, 137.95 57.60 05/05/2022 02:26:28 73.85, 137.86 57.60 2.73 14
13 05/05/2022 03:16:10 -73.96, -54.67 122.30 05/05/2022 03:17:07 -73.95, -54.57 122.32 3.22 57



Historial Predications of SNOs between AQUA and METOP-C
